Location: Cran-Gévrier
(45.9039°N, 6.1012°E)
Time: 02:05:29
(UTC+00:00)

ISS - Visible Passes

Search period start: 21 February 2024 00:00
Search period end: 02 March 2024 00:00
Orbit: 415 x 417 km, 51.6° (Epoch: 20 February)

Date Brightness Start Highest point End Pass type
(mag) Time Alt. Az. Time Alt. Az. Time Alt. Az.
21 Feb -0.3 03:32:56 12° E 03:32:56 12° E 03:33:14 10° E visible
21 Feb -3.8 05:05:50 34° W 05:07:06 71° NNW 05:10:28 10° ENE visible
22 Feb -2.9 04:19:19 49° ENE 04:19:19 49° ENE 04:21:53 10° ENE visible
22 Feb -2.7 05:52:23 10° WNW 05:55:30 34° N 05:58:36 10° ENE visible
23 Feb -0.5 03:32:42 14° ENE 03:32:42 14° ENE 03:33:13 10° ENE visible
23 Feb -3.0 05:05:35 29° WNW 05:06:46 40° NNW 05:09:58 10° NE visible
24 Feb -2.7 04:18:52 40° NNE 04:18:52 40° NNE 04:21:21 10° ENE visible
24 Feb -2.4 05:52:14 10° WNW 05:55:14 29° N 05:58:14 10° ENE visible
25 Feb -0.6 03:32:06 14° ENE 03:32:06 14° ENE 03:32:41 10° ENE visible
25 Feb -2.5 05:04:58 22° NW 05:06:24 31° N 05:09:27 10° ENE visible
26 Feb -2.4 04:18:08 32° NNE 04:18:08 32° NNE 04:20:41 10° NE visible
26 Feb -2.5 05:51:46 10° WNW 05:54:50 32° N 05:57:54 10° ENE visible
27 Feb -0.6 03:31:15 15° NE 03:31:15 15° NE 03:31:55 10° NE visible
27 Feb -2.3 05:04:07 18° NW 05:05:57 29° N 05:08:57 10° ENE visible
28 Feb -2.3 04:17:12 29° N 04:17:12 29° N 04:20:01 10° ENE visible
29 Feb -0.7 03:30:15 16° NE 03:30:15 16° NE 03:31:06 10° ENE visible
29 Feb -2.6 05:03:08 16° NW 05:05:20 35° NNE 05:08:27 10° E visible
01 Mar -2.4 04:16:10 31° N 04:16:21 31° N 04:19:24 10° ENE visible
